sat.trackr.live / text

‹ back to catalog

STARLINK-30052

NORAD 57611 · 2023-119K

PAYLOAD ACTIVE UNKNOWN

§ Identity

Operator
Country
US
Launch date
2023-08-11
Launch site
AFETR
Launch vehicle
Mass (kg)
RCS (m²)

Purposes: comms

External: N2YO · Heavens-Above · Gunter

§ Orbital elements

Epoch: 2026-09-19T21:59:32.112960Z

Period
94.27 min
Inclination
43.0045°
Eccentricity
0.0002025
Mean motion
15.27538561 rev/d
Perigee alt
481.8 km
Apogee alt
484.6 km
Semi-major
6,861.3 km
B*
1.6738e-4
RAAN
64.4455°
Arg perigee
250.0336°
Mean anomaly
110.0297°
Rev number
17,277

§ Raw data

STARLINK-300521 57611U 23119K   26262.91634390  .00004341  00000+0  16738-3 0  99982 57611  43.0045  64.4455 0002025 250.0336 110.0297 15.27538561172771

JSON: /api/v1/satellites/57611 · /tle

For live sub-satellite position, see the globe view (requires WebGL).

§ Visibility from observer

Set your observer location to see the next 7 days of passes ≥ 10°. The values pass through the URL so the page stays shareable.

No JS? Fill the form by hand. The geolocation button needs JavaScript.